Date String (YYYY-MM-DD hh:mm:ss) UTC,Instrument flags,absolute air pressure of the measurement (hPa),sample flow rate (lpm),inlet stack bypass flow (lpm),air temperature of the measurement (°C),ambient temperature measured by the external sensor (°C),aerosol sample conditioner tube jacket temperature (°C),OPC LED temperature (°C),internal box temperature (°C),relative humidity of the measurement (%),span deviation,mass concentration of particles derived from Lorenz-Mie calculation of OPC scattering (μg/m³),mass concentration of particles derived from Lorenz-Mie calculation of OPC scattering (μg/m³),mass concentration of particles derived from Lorenz-Mie calculation of OPC scattering (μg/m³)
DateTimeUTC,F1_M11,P_M11,Q1_M11,Q2_M11,T1_M11,T2_M11,T3_M11,T4_M11,T5_M11,U1_M11,ZSPAN_M11,X0_M11,X2_M11,X1_M11
2023-06-20 21:00:00,SystemResetWarning,0828.4,5.02,000.00,029.5,024.5,000.0,037.8,031.0,24.4,0000.0,0031.11,0006.93,0004.69
2023-06-20 21:01:00,SystemResetWarning,0828.5,5.00,000.00,029.4,024.9,000.0,037.8,030.7,24.6,0000.0,0030.70,0006.91,0004.68
2023-06-20 21:02:00,SystemResetWarning,0828.4,5.00,000.00,029.3,025.4,000.0,037.8,030.7,25.3,0000.0,0028.55,0006.95,0004.68
2023-06-20 21:03:00,SystemResetWarning,0828.5,5.00,000.00,029.3,025.9,000.0,037.8,030.8,25.8,0000.0,0027.30,0006.98,0004.69
2023-06-20 21:04:00,SystemResetWarning,0828.5,5.00,000.00,029.3,026.4,000.0,037.8,030.9,23.3,0000.0,0025.32,0006.99,0004.68
2023-06-20 21:05:00,SystemResetWarning,0828.5,5.00,000.00,029.3,026.8,000.0,037.9,030.9,25.8,0000.0,0024.28,0006.95,0004.68
2023-06-20 21:06:00,SystemResetWarning,0828.5,5.00,000.00,029.4,027.2,000.0,037.9,031.0,23.7,0000.0,0023.30,0006.94,0004.66
2023-06-20 21:07:00,SystemResetWarning,0828.5,4.98,000.00,029.4,027.5,000.0,037.9,031.0,23.6,0000.0,0022.49,0006.96,0004.67
2023-06-20 21:08:00,SystemResetWarning,0828.5,5.00,000.00,029.4,027.7,000.0,037.9,031.1,25.1,0000.0,0022.92,0006.95,0004.66
2023-06-20 21:09:00,SystemResetWarning,0828.6,5.01,000.00,029.5,027.9,000.0,037.9,031.1,26.0,0000.0,0023.98,0006.94,0004.68
2023-06-20 21:10:00,SystemResetWarning,0828.6,5.00,000.00,029.5,028.1,000.0,038.0,031.2,24.6,0000.0,0023.68,0006.92,0004.69
2023-06-20 21:11:00,SystemResetWarning,0828.6,4.98,000.00,029.6,027.4,000.0,037.9,031.2,24.5,0000.0,0022.80,0006.91,0004.69
2023-06-20 21:12:00,SystemResetWarning,0828.6,5.01,000.00,029.5,025.3,000.0,037.9,031.0,24.8,0000.0,0022.29,0006.86,0004.69
2023-06-20 21:13:00,SystemResetWarning,0828.6,4.99,000.00,029.5,024.6,000.0,037.8,030.9,26.6,0000.0,0022.43,0006.84,0004.67
2023-06-20 21:14:00,SystemResetWarning,0828.6,5.00,000.00,029.4,024.9,000.0,037.8,030.8,25.9,0000.0,0021.72,0006.80,0004.64
2023-06-20 21:15:00,SystemResetWarning,0828.6,5.01,000.00,029.3,025.3,000.0,037.8,030.7,24.2,0000.0,0020.63,0006.74,0004.63
2023-06-20 21:16:00,SystemResetWarning,0828.6,4.99,000.00,029.3,025.8,000.0,037.8,030.7,24.5,0000.0,0020.30,0006.70,0004.62
2023-06-20 21:17:00,SystemResetWarning,0828.6,5.00,000.00,029.3,026.3,000.0,037.8,030.8,23.8,0000.0,0020.56,0006.67,0004.60
2023-06-20 21:18:00,SystemResetWarning,0828.5,5.00,000.00,029.3,026.8,000.0,037.8,030.9,23.1,0000.0,0021.39,0006.59,0004.59
2023-06-20 21:19:00,SystemResetWarning,0828.6,5.00,000.00,029.3,027.1,000.0,037.8,031.0,22.9,0000.0,0021.20,0006.52,0004.56
2023-06-20 21:20:00,SystemResetWarning,0828.6,5.00,000.00,029.4,027.4,000.0,037.9,031.1,22.4,0000.0,0021.06,0006.41,0004.52
2023-06-20 21:21:00,SystemResetWarning,0828.5,5.00,000.00,029.4,027.7,000.0,037.9,031.1,21.8,0000.0,0021.23,0006.35,0004.49
2023-06-20 21:22:00,SystemResetWarning,0828.6,5.00,000.00,029.5,027.9,000.0,037.9,031.2,23.2,0000.0,0022.16,0006.27,0004.46
2023-06-20 21:23:00,SystemResetWarning,0828.6,5.00,000.00,029.5,028.1,000.0,037.9,031.2,24.7,0000.0,0023.23,0006.22,0004.44
2023-06-20 21:24:00,SystemResetWarning,0828.5,4.98,000.00,029.6,026.9,000.0,037.9,031.2,23.6,0000.0,0022.87,0006.16,0004.42
2023-06-20 21:25:00,SystemResetWarning,0828.5,5.01,000.00,029.5,025.6,000.0,037.9,031.1,23.8,0000.0,0023.98,0006.11,0004.41
2023-06-20 21:26:00,SystemResetWarning,0828.5,5.00,000.00,029.5,025.7,000.0,037.8,031.1,24.4,0000.0,0024.80,0006.07,0004.37
2023-06-20 21:27:00,SystemResetWarning,0828.5,4.99,000.00,029.4,026.1,000.0,037.9,030.9,24.1,0000.0,0024.32,0006.05,0004.34
2023-06-20 21:28:00,SystemResetWarning,0828.5,5.01,000.00,029.4,026.5,000.0,037.9,031.0,23.3,0000.0,0024.43,0005.99,0004.31
2023-06-20 21:29:00,SystemResetWarning,0828.6,5.01,000.00,029.4,026.9,000.0,037.9,031.0,23.9,0000.0,0024.14,0005.97,0004.28
2023-06-20 21:30:00,SystemResetWarning,0828.5,5.00,000.00,029.5,027.3,000.0,037.9,031.1,23.2,0000.0,0024.75,0005.98,0004.27
2023-06-20 21:31:00,SystemResetWarning,0828.5,5.00,000.00,029.5,027.6,000.0,037.9,031.1,23.2,0000.0,0024.47,0006.02,0004.27
2023-06-20 21:32:00,SystemResetWarning,0828.6,5.00,000.00,029.5,027.8,000.0,038.0,031.2,22.7,0000.0,0024.54,0006.03,0004.25
2023-06-20 21:33:00,SystemResetWarning,0828.6,4.98,000.00,029.6,026.8,000.0,037.9,031.3,21.9,0000.0,0024.25,0006.05,0004.24
2023-06-20 21:34:00,SystemResetWarning,0828.5,5.00,000.00,029.5,025.5,000.0,037.9,031.2,21.4,0000.0,0022.72,0006.05,0004.22
2023-06-20 21:35:00,SystemResetWarning,0828.5,5.02,000.00,029.5,025.6,000.0,037.9,031.2,21.8,0000.0,0023.02,0006.05,0004.21
2023-06-20 21:36:00,SystemResetWarning,0828.5,5.00,000.00,029.5,026.0,000.0,037.9,030.9,22.9,0000.0,0022.14,0006.04,0004.20
2023-06-20 21:37:00,SystemResetWarning,0828.5,5.00,000.00,029.4,026.4,000.0,037.9,030.9,22.5,0000.0,0021.87,0006.03,0004.19
2023-06-20 21:38:00,SystemResetWarning,0828.5,5.00,000.00,029.4,026.8,000.0,037.9,031.0,22.0,0000.0,0022.63,0006.02,0004.20
2023-06-20 21:39:00,SystemResetWarning,0828.4,5.00,000.00,029.5,027.2,000.0,037.9,031.1,22.1,0000.0,0023.14,0006.08,0004.22
2023-06-20 21:40:00,SystemResetWarning,0828.4,4.99,000.00,029.5,027.5,000.0,038.0,031.2,22.8,0000.0,0022.66,0006.15,0004.23
2023-06-20 21:41:00,SystemResetWarning,0828.4,5.00,000.00,029.5,027.8,000.0,038.0,031.2,23.5,0000.0,0024.09,0006.19,0004.23
2023-06-20 21:42:00,SystemResetWarning,0828.4,5.01,000.00,029.6,027.8,000.0,038.0,031.3,23.6,0000.0,0025.24,0006.23,0004.23
2023-06-20 21:43:00,SystemResetWarning,0828.4,4.98,000.00,029.6,026.1,000.0,037.9,031.2,24.2,0000.0,0025.06,0006.23,0004.25
2023-06-20 21:44:00,SystemResetWarning,0828.4,5.01,000.00,029.5,024.6,000.0,037.9,031.0,23.5,0000.0,0024.21,0006.28,0004.26
2023-06-20 21:45:00,SystemResetWarning,0828.4,5.01,000.00,029.5,024.7,000.0,037.8,030.9,22.8,0000.0,0025.66,0006.34,0004.27
2023-06-20 21:46:00,SystemResetWarning,0828.4,5.01,000.00,029.4,025.1,000.0,037.8,030.7,24.0,0000.0,0025.85,0006.39,0004.28
2023-06-20 21:47:00,SystemResetWarning,0828.4,4.99,000.00,029.3,025.6,000.0,037.9,030.7,22.8,0000.0,0026.11,0006.44,0004.29
2023-06-20 21:48:00,SystemResetWarning,0828.4,5.00,000.00,029.3,026.2,000.0,037.9,030.8,22.2,0000.0,0025.98,0006.46,0004.30
2023-06-20 21:49:00,SystemResetWarning,0828.4,4.99,000.00,029.3,026.6,000.0,037.9,030.9,22.6,0000.0,0026.00,0006.51,0004.29
2023-06-20 21:50:00,SystemResetWarning,0828.4,5.01,000.00,029.4,027.0,000.0,037.9,031.0,22.4,0000.0,0025.65,0006.51,0004.28
2023-06-20 21:51:00,SystemResetWarning,0828.5,5.02,000.00,029.4,027.4,000.0,037.9,031.0,21.8,0000.0,0026.07,0006.46,0004.28
2023-06-20 21:52:00,SystemResetWarning,0828.4,5.00,000.00,029.4,027.6,000.0,037.9,031.1,21.3,0000.0,0024.49,0006.44,0004.28
2023-06-20 21:53:00,SystemResetWarning,0828.4,5.00,000.00,029.5,027.9,000.0,037.9,031.2,22.0,0000.0,0023.01,0006.46,0004.26
2023-06-20 21:54:00,SystemResetWarning,0828.4,5.00,000.00,029.5,028.1,000.0,038.0,031.2,21.4,0000.0,0022.91,0006.47,0004.25
2023-06-20 21:55:00,SystemResetWarning,0828.4,4.99,000.00,029.6,027.8,000.0,038.0,031.3,22.2,0000.0,0022.93,0006.45,0004.22
2023-06-20 21:56:00,SystemResetWarning,0828.4,4.99,000.00,029.6,025.7,000.0,037.9,031.2,23.5,0000.0,0022.85,0006.42,0004.21
2023-06-20 21:57:00,SystemResetWarning,0828.4,5.02,000.00,029.5,024.6,000.0,037.9,031.1,23.7,0000.0,0022.91,0006.43,0004.19
2023-06-20 21:58:00,SystemResetWarning,0828.4,4.99,000.00,029.5,024.9,000.0,037.8,031.0,21.9,0000.0,0023.17,0006.37,0004.17
2023-06-20 21:59:00,SystemResetWarning,0828.4,5.00,000.00,029.4,025.3,000.0,037.9,030.8,22.5,0000.0,0022.97,0006.33,0004.14
